Regional Weather Roundup
Issued by NWS

Home | Current Version | Previous Version | Text Only | Print | Product List | Glossary On
Versions: 1 2 3 4 5 6 7 8 9 10 11 12 13 14 15 16 17 18 19 20 21 22 23 24 25 26 27 28 29 30 31 32 33 34 35 36 37 38 39 40 41 42 43 44 45 46 47 48 49
000
ASUS45 KREV 280510
RWRNV
NEVADA REGIONAL WEATHER ROUNDUP
NATIONAL WEATHER SERVICE RENO NV
900 PM PST TUE JAN 27 2015

NOTE: "FAIR" INDICATES FEW OR NO CLOUDS BELOW 12,000 FEET WITH NO
SIGNIFICANT WEATHER AND/OR OBSTRUCTIONS TO VISIBILITY.

NVZ001-003-004-280600-
WESTERN NEVADA

CITY           SKY/WX    TMP DP  RH WIND       PRES   REMARKS
RENO           CLOUDY    42  31  64 S6        30.26S
CARSON CITY    CLOUDY    41  32  70 CALM      30.28R
SLIDE MTN        N/A     27  19  74 N15         N/A
PYRAMID LAKE     N/A     46 N/A N/A W7          N/A
FALLON         CLOUDY    42  39  89 S7        30.25R
LOVELOCK       CLOUDY    42  32  67 S6        30.24R
HAWTHORNE      CLOUDY    46  37  71 CALM      30.27R
$$

NVZ002-CAZ072-073-280600-
NORTHERN AND CENTRAL SIERRA

CITY           SKY/WX    TMP DP  RH WIND       PRES   REMARKS
S. LAKE TAHOE  CLOUDY    34  30  85 S3        30.29R
TRUCKEE        CLOUDY    32  30  93 CALM      30.31R
SQUAW VLY 8000   N/A     32  23  69 CALM        N/A
SUSANVILLE     CLOUDY    43  32  65 CALM      30.26
BLUE CANYON    MOCLDY    41  21  44 CALM      30.30S
MAMMOTH LAKES  CLOUDY    36  32  87 W3        30.30S
BRIDGEPORT     MOCLDY    33  27  78 CALM      30.28R
$$

NVZ030-031-036-280600-
NORTHERN NEVADA

CITY           SKY/WX    TMP DP  RH WIND       PRES   REMARKS
ELKO           CLOUDY    38  36  92 SW6       30.19R
WINNEMUCCA     CLOUDY    39  37  92 S8        30.22R
WENDOVER       CLOUDY    37  32  81 CALM      30.16S
$$

NVZ035-037-280600-
CENTRAL NEVADA

CITY           SKY/WX    TMP DP  RH WIND       PRES   REMARKS
ELY            CLOUDY    37  34  89 S12       30.23R
EUREKA           N/A     39  32  76 W7        30.23R
$$

NVZ013-014-280600-
SOUTH CENTRAL NEVADA

CITY           SKY/WX    TMP DP  RH WIND       PRES   REMARKS
TONOPAH        MOCLDY    41  34  76 NW7       30.26S
$$

NVZ017-020-022-280600-
SOUTHERN NEVADA

CITY           SKY/WX    TMP DP  RH WIND       PRES   REMARKS
LAS VEGAS      PTCLDY    55  48  77 SW3       30.18R
N. LAS VEGAS   CLEAR     53  46  77 CALM      30.22R
NELLIS AFB     CLEAR     54  49  84 NE9       30.22R
HENDERSON      CLEAR     51  48  89 CALM      30.24R
MERCURY        CLOUDY    47  44  90 E5        30.24R
$$



USA.gov is the U.S. government's official web portal to all federal, state and local government web resources and services.